Location: Banff
(51.1667°N, 115.5667°W)
Time: 13:19:10
(UTC+00:00)

Vanguard 1 Rocket - Pass Details

Date: 01 December 2020
Orbit: 655 x 4222 km, 34.3° (Epoch: 23 January)

Event Time Altitude Azimuth Distance (km) Brightness Sun altitude
Rises 04:52:07 0° 172° (S) 7,729 - -47.5°
Reaches altitude 10° 05:01:58 10° 151° (SSE) 7,212 - -48.8°
Maximum altitude 05:12:08 14° 127° (SE) 7,053 - -50.2°
Drops below altitude 10° 05:22:17 10° 103° (ESE) 7,300 - -51.5°
Sets 05:32:04 0° 83° (E) 7,907 - -52.7°
